Location: Roland
(31.1349°N, 85.4372°W)
Time: 23:07:18
(UTC+00:00)

Courier 1B Rocket - Visible Passes

Search period start: 18 April 2021 00:00
Search period end: 28 April 2021 00:00
Orbit: 920 x 1202 km, 28.2° (Epoch: 18 April)

Date Brightness Start Highest point End Pass type
(mag) Time Alt. Az. Time Alt. Az. Time Alt. Az.
18 Apr 5.6 01:20:09 10° SW 01:26:30 42° SSE 01:30:17 24° ESE visible
18 Apr 6.2 03:12:48 10° WSW 03:16:41 36° WSW 03:16:41 36° WSW visible
19 Apr 5.2 02:11:54 10° WSW 02:18:41 62° SSE 02:19:43 56° SE visible
19 Apr 7.4 04:05:06 10° W 04:06:06 15° W 04:06:06 15° W visible
20 Apr 5.4 01:11:09 10° WSW 01:17:36 52° SSE 01:22:39 19° E visible
20 Apr 5.7 03:04:05 10° W 03:09:02 49° WSW 03:09:02 49° WSW visible
21 Apr 5.1 02:03:09 10° WSW 02:09:53 68° S 02:11:54 48° ESE visible
21 Apr 7.1 03:56:25 10° W 03:58:16 20° W 03:58:16 20° W visible
22 Apr 5.2 01:02:18 10° WSW 01:08:47 61° S 01:14:41 15° E visible
22 Apr 5.4 02:55:25 10° W 03:01:04 59° SW 03:01:04 59° SW visible
23 Apr 5.1 01:54:27 10° W 02:01:07 71° S 02:03:48 40° ESE visible
23 Apr 6.9 03:47:48 10° W 03:50:10 23° W 03:50:10 23° W visible
24 Apr 5.1 00:53:34 10° WSW 01:00:01 68° S 01:06:29 12° E visible
24 Apr 5.3 02:46:47 10° W 02:52:51 61° SW 02:52:51 61° SW visible
25 Apr 5.1 01:45:50 10° W 01:52:22 69° S 01:55:31 34° ESE visible
25 Apr 6.7 03:39:13 10° W 03:41:53 24° WSW 03:41:53 24° WSW visible
26 Apr 5.1 00:44:54 10° W 00:51:17 70° S 00:58:07 10° E visible
26 Apr 5.3 02:38:11 10° W 02:44:31 55° SSW 02:44:31 55° SSW visible
27 Apr 5.2 01:37:12 10° W 01:43:37 63° S 01:47:09 29° ESE visible
27 Apr 6.7 03:30:48 10° W 03:33:31 23° WSW 03:33:31 23° WSW visible
